Regional Weather Roundup
Issued by NWS

Home | Current Version | Previous Version | Graphics & Text | Print | Product List | Glossary Off
Versions: 1 2 3 4 5 6 7 8 9 10 11 12 13 14 15 16 17 18 19 20 21 22 23 24 25 26 27 28 29 30 31 32 33 34 35 36 37 38 39 40 41 42 43 44 45 46 47 48 49 50

000
ASUS43 KDTX 250710
RWRMI
MICHIGAN HOURLY REGIONAL WEATHER ROUNDUP
NATIONAL WEATHER SERVICE DETROIT/PONTIAC MI
300 AM EDT SAT APR 25 2015

NOTE: "FAIR" INDICATES FEW OR NO CLOUDS BELOW 12,000 FEET WITH NO
SIGNIFICANT WEATHER AND/OR OBSTRUCTION TO VISIBILITY.

MIZ047>049-052>055-059>063-066>070-074>076-081>083-250800-
SOUTHEAST LOWER MICHIGAN

CITY           SKY/WX    TMP DP  RH WIND       PRES   REMARKS
ADRIAN         LGT RAIN  41  38  89 E8        29.99S
ALMA           CLOUDY    37  29  72 NE8       30.01F WCI  31
ANN ARBOR      LGT RAIN  41  37  86 S5        29.99F
BAD AXE        CLOUDY    32  24  73 CALM      30.03F
CARO           CLOUDY    33  22  62 CALM      30.02F
DETROIT CITY   CLOUDY    38  27  64 E6        30.01F WCI  33
DETROIT        LGT RAIN  43  37  81 S7        30.01F
FLINT          CLOUDY    38  21  50 E8        30.00F WCI  32
GROSSE ILE     RAIN      43  37  81 S8        30.00S
HILLSDALE      LGT RAIN  41  39  91 E10       29.96S
HOWELL         CLOUDY    41  36  81 S5        29.98F

CITY           SKY/WX    TMP DP  RH WIND       PRES   REMARKS
JACKSON        CLOUDY    41  37  86 E5        29.97F
LAMBERTVILLE   RAIN      43  36  75 NE5       29.99F
LANSING        LGT RAIN  43  36  76 SW6       29.99S
LAPEER         FAIR      33  22  63 CALM      30.01F
MASON          MIX PCPN  42  35  77 S3        29.98S
MONROE         LGT RAIN  41  37  87 NE3       29.98F
PONTIAC        CLOUDY    37  21  52 E6        29.99F WCI  32
PORT HOPE        N/A     32  23  69 CALM      30.02S
PORT HURON     CLOUDY    34  23  64 CALM      30.02S
TRI CITIES     CLOUDY    37  23  56 E7        30.02F WCI  32
TROY           CLOUDY    38  24  55 E8        30.02F WCI  32
SAGINAW HB     CLOUDY    34  23  64 E3        30.01F
$$
MIZ043>046-050>051-056>058-064>065-071>073-077>080-250800-
SOUTHWEST LOWER MICHIGAN

CITY           SKY/WX    TMP DP  RH WIND       PRES   REMARKS
BATTLE CREEK   LGT RAIN  41  37  86 E9        29.97F
BENTON HARBOR  CLOUDY    42  38  85 E15G21    29.90F
BIG RAPIDS     CLOUDY    38  29  69 E8        29.98F WCI  32
COLDWATER      RAIN      41  37  87 NE14      29.95S
FREMONT        CLOUDY    43  31  64 CALM      29.97F
HOLLAND        LGT RAIN  44  39  82 E10       29.95F
GRAND RAPIDS   CLOUDY    43  35  73 CALM      29.97F
IONIA          DRIZZLE   44  38  79 S6        29.97F
KALAMAZOO      LGT RAIN  42  37  82 E3        29.96F
LUDINGTON      CLOUDY    40  28  62 CALM      29.97F
MARSHALL       LGT RAIN  39  37  93 E5        29.96F
MOUNT PLEASANT CLOUDY    37  23  57 NE3       30.00F
MUSKEGON       CLOUDY    43  37  79 NE8       29.96F
SOUTH HAVEN    CLOUDY    43  38  83 E9        29.92F
$$
MIZ016>042-250800-
NORTHERN LOWER MICHIGAN

CITY           SKY/WX    TMP DP  RH WIND       PRES   REMARKS
ALPENA         CLEAR     24  19  81 CALM      30.03S
BEAVER ISLAND  MOCLDY    30  25  81 E5        30.03S WCI  25
BELLAIRE       MOCLDY    35  20  53 CALM      30.02S
CADILLAC       CLOUDY    36  24  61 E8        29.97F WCI  30
CHARLEVOIX     MOCLDY    35  22  58 E7        30.05F WCI  29
FRANKFORT      CLOUDY    41  14  33 NE3       29.99F
GAYLORD        PTCLDY    31  18  58 NE3       29.99F
GRAYLING       MOCLDY    32  20  62 E5        30.00F WCI  27
HARBOR SPRINGS PTCLDY    27  21  76 CALM      30.03S
HOUGHTON LAKE  CLOUDY    33  21  61 SE5       30.00F WCI  29
MANISTEE       CLOUDY    37  18  44 E5        29.99F WCI  34
OSCODA         MOCLDY    25  22  86 CALM      30.03S
PELLSTON       CLEAR     23  18  81 CALM      30.03F
ROGERS CITY    CLEAR     24  21  89 SW6       30.03F WCI  17
TRAVERSE CITY  CLOUDY    37  31  78 CALM      29.99F
$$
MIZ007>008-015-250800-
EASTERN UPPER MICHIGAN

CITY           SKY/WX    TMP DP  RH WIND       PRES   REMARKS
KINROSS        CLEAR     25  23  93 CALM      30.02S
MACKINAC ISLAN CLEAR     28  20  70 N5        30.02S WCI  23
NEWBERRY       CLEAR     25  19  79 N5        30.02F WCI  19
S. S. MARIE    CLEAR     26  22  84 W3        30.02F
MUNISING         N/A     33  23  66 CALM      30.02F
$$
MIZ004>006-011>014-085-250800-
CENTRAL UPPER MICHIGAN

CITY           SKY/WX    TMP DP  RH WIND       PRES   REMARKS
MANISTIQUE     CLOUDY    30  19  64 CALM      30.02S
ESCANABA       CLOUDY    34  25  69 NW3       30.01F
MENOMINEE      CLOUDY    36  25  64 NE7       29.99F WCI  30
SAWYER-GWINN   MOCLDY    29  19  66 CALM      29.99F
$$
MIZ001>003-009>011-084-250800-
WESTERN UPPER MICHIGAN

CITY           SKY/WX    TMP DP  RH WIND       PRES   REMARKS
IRON MOUNTAIN  CLOUDY    36  24  62 SE5       29.97F WCI  32
HOUGHTON       CLOUDY    31  23  72 E8        29.99F WCI  23
COPPER HARBOR    N/A     29  24  82 SW3       30.04S
IRONWOOD       CLOUDY    39  27  60 E6        29.90F WCI  35
$$

ABBREVIATIONS USED IN REMARKS
   TC - TEMPERATURE IN CELSIUS
  WCI - WIND CHILL INDEX
   HX - HEAT INDEX
  VSB - VISIBILITY



USA.gov is the U.S. government's official web portal to all federal, state and local government web resources and services.